This is the latest recevied weather packets stored in our database for station/object KQ4PPF. If no packets are shown the sender has not sent any weather packets the latest 10 day(s).
| Time | Temp. | Humidity | Pressure | Rain* | Wind** | Luminosity | Snow |
|---|---|---|---|---|---|---|---|
| 1777738413 | 16.11° C | 41% | 1015.6 hPa | 0 mm | - | 271 W/m² | - |
| 1777738111 | 16.11° C | 43% | 1015.5 hPa | 0 mm | - | 275 W/m² | - |
| 1777737810 | 15.56° C | 43% | 1015.4 hPa | 0 mm | - | 293 W/m² | - |
| 1777737508 | 15.56° C | 43% | 1015.3 hPa | 0 mm | - | 308 W/m² | - |
| 1777737206 | 16.11° C | 43% | 1015.3 hPa | 0 mm | - | 272 W/m² | - |
| 1777736902 | 16.11° C | 43% | 1015.5 hPa | 0 mm | - | 432 W/m² | - |
| 1777736294 | 15.56° C | 44% | 1015.5 hPa | 0 mm | - | 315 W/m² | - |
| 1777735990 | 15.56° C | 42% | 1015.5 hPa | 0 mm | - | 301 W/m² | - |
| 1777735688 | 15.56° C | 46% | 1015.3 hPa | 0 mm | - | 272 W/m² | - |
| 1777735385 | 15.56° C | 44% | 1015.3 hPa | 0 mm | - | 235 W/m² | - |
| 1777735082 | 15° C | 46% | 1015.3 hPa | 0 mm | - | 239 W/m² | - |
| 1777734779 | 15.56° C | 44% | 1015.1 hPa | 0 mm | - | 194 W/m² | - |
| 1777734477 | 15.56° C | 45% | 1015.2 hPa | 0 mm | - | 239 W/m² | - |
| 1777734173 | 15.56° C | 44% | 1015.2 hPa | 0 mm | - | 378 W/m² | - |
| 1777733869 | 15.56° C | 44% | 1015.2 hPa | 0 mm | - | 555 W/m² | - |
| 1777733262 | 15.56° C | 48% | 1015.1 hPa | 0 mm | - | 272 W/m² | - |
| 1777732959 | 16.11° C | 45% | 1014.9 hPa | 0 mm | - | 587 W/m² | - |
| 1777732655 | 15.56° C | 48% | 1014.9 hPa | 0 mm | - | 707 W/m² | - |
| 1777732353 | 15.56° C | 48% | 1014.9 hPa | 0 mm | - | 710 W/m² | - |
| 1777732051 | 15.56° C | 47% | 1014.8 hPa | 0 mm | - | 519 W/m² | - |
| 1777731747 | 15° C | 51% | 1014.8 hPa | 0 mm | - | 217 W/m² | - |
| 1777731444 | 15° C | 53% | 1014.9 hPa | 0 mm | - | 480 W/m² | - |
| 1777731142 | 15° C | 52% | 1014.6 hPa | 0 mm | - | 86 W/m² | - |
| 1777730840 | 14.44° C | 51% | 1014.9 hPa | 0 mm | - | 80 W/m² | - |
| 1777730538 | 15° C | 53% | 1014.8 hPa | 0 mm | - | 64 W/m² | - |
* Rain latest hour (hover to see other rain measurements)
** Current wind speed in m/s (hover to see current wind gust speed)